Location: Newark
(34.9471°N, 136.1778°E)
Time: 16:47:19
(UTC+00:00)

LilacSat-2 - Pass Details

Date: 28 February 2020
Orbit: 514 x 534 km, 97.5° (Epoch: 05 April)

Event Time Altitude Azimuth Distance (km) Brightness Sun altitude
Rises 20:49:59 0° 8° (N) 2,656 ? -8.2°
Reaches altitude 10° 20:52:05 10° 6° (N) 1,767 ? -7.7°
Maximum altitude 20:55:52 70° 283° (WNW) 563 ? -7.0°
Drops below altitude 10° 20:59:40 10° 200° (SSW) 1,766 ? -6.2°
Sets 21:01:46 0° 198° (SSW) 2,654 ? -5.8°
